Location: Allison Elementary School
(34.0784°N, 117.7317°W)
Time: 23:40:37
(UTC+00:00)

Cosmos 1743 Rocket - Pass Details

Date: 15 November 2019
Orbit: 604 x 633 km, 82.6° (Epoch: 06 December)

Event Time Altitude Azimuth Distance (km) Brightness Sun altitude
Rises 01:08:54 0° 353° (N) 2,872 6.9 -4.9°
Reaches altitude 10° 01:11:07 10° 354° (N) 1,967 6.0 -5.4°
Maximum altitude 01:15:29 88° 83° (E) 618 3.6 -6.2°
Drops below altitude 10° 01:19:51 10° 174° (S) 1,970 6.3 -7.1°
Sets 01:22:04 0° 175° (S) 2,876 7.1 -7.5°
